Regional Weather Roundup
Issued by NWS Jackson, KY

Home | Current Version | Previous Version | Graphics & Text | Print | Product List | Glossary Off
Versions: 1 2 3 4 5 6 7 8 9 10 11 12 13 14 15 16 17 18 19 20 21 22 23 24 25 26 27 28 29 30 31 32 33 34 35 36 37 38 39 40 41 42 43 44 45 46 47 48 49 50

040
ASUS43 KJKL 261910
RWRJKL

EAST KENTUCKY HOURLY WEATHER ROUNDUP
NATIONAL WEATHER SERVICE JACKSON KY
300 PM EDT MON SEP 26 2016

NOTE: "FAIR" INDICATES FEW OR NO CLOUDS BELOW 12,000 FEET WITH
NO SIGNIFICANT WEATHER AND/OR OBSTRUCTIONS TO VISIBILITY.

* THESE REPORTS ARE NOT UNDER NWS QUALITY CONTROL AND MAY NOT
  REPORT WEATHER SUCH AS PRECIPITATION AND FOG.

KYZ079-080-083-085-087-088-110-112-115-119-120-262000
...EASTERN KENTUCKY...

CITY           SKY/WX    TMP DP  RH WIND       PRES   REMARKS
JACKSON        CLOUDY    71  64  78 NW5       30.04F
LONDON         CLOUDY    72  64  76 N12       30.06S
SOMERSET*      CLOUDY    72  63  73 W5        30.07F
MONTICELLO*    CLOUDY    71  66  84 N14       30.08F
WILLIAMSBURG*  MOCLDY    73  68  83 NW7       30.06S
MIDDLESBORO*   PTSUNNY   73  70  88 CALM      30.03F
HARLAN APT*    CLOUDY    73  68  83 CALM      30.04F
PIKE CO APT*   PTSUNNY   78  66  66 W7        30.01S
BIG SANDY APT* MOCLDY    78  66  64 NW12G21   30.00F
MOREHEAD APT*  RAIN      68  61  77 NW14      30.05F
ASHLAND*       CLOUDY    73  63  68 NW6       29.98F
$$

KYZ035-036-041-042-044-050-067-078-099-262000
...CENTRAL KENTUCKY...

CITY           SKY/WX    TMP DP  RH WIND       PRES   REMARKS
MT STERLING*   LGT RAIN  63  61  94 NW12G23   30.08R
FLEMING/MASON* LGT RAIN  62  61  95 W7        30.05F
DANVILLE*      LGT RAIN  64  61  88 NW6       30.08F
LEXINGTON      CLOUDY    65  60  84 W7        30.07F
FRANKFORT      CLOUDY    65  58  78 W6        30.07F
LOUISVILLE     CLOUDY    68  55  63 W8        30.08F
LEBANON*       CLOUDY    64  59  82 W8        30.09F
GLASGOW*       CLOUDY    64  64 100 NW6       30.09F
BOWLING GREEN  PTSUNNY   65  60  84 VRB3      30.10F
$$

KYZ091>093-OHZ055-061-077-WVZ005-015-034-035-042-262000
...SOUTHERN OHIO/WEST VIRGINIA...

CITY           SKY/WX    TMP DP  RH WIND       PRES   REMARKS
COVINGTON      CLOUDY    66  56  70 W8        30.05F
COLUMBUS       CLOUDY    62  59  90 W15       30.00F FOG
DAYTON         CLOUDY    66  50  56 W16G23    30.03F
WILMINGTON     CLOUDY    62  57  83 W12       30.02F
HUNTINGTON     PTSUNNY   77  60  55 VRB6      29.99F
CHARLESTON     PTSUNNY   74  69  85 W3        29.96R
PINEVILLE*     CLOUDY    84  61  46 MISG      30.04F
BECKLEY        SUNNY     78  62  57 SW10      30.03F
BLUEFIELD      CLOUDY    75  61  61 W9        30.07F
LOGAN CO APT*  MOCLDY    73  70  88 CALM      29.98F
$$

VAZ002-007-008-TNZ017-027-036-066-071-262000
...SOUTHWEST VIRGINIA/EAST TENNESSEE...

CITY           SKY/WX    TMP DP  RH WIND       PRES   REMARKS
WISE*          CLOUDY    75  57  53 W13G18    30.10F
JONESVILLE*    MOCLDY    73  63  68 W8G17     30.06R
ABINGDON*      CLOUDY    78  66  66 W8        30.05F
BRISTOL        CLOUDY    84  65  52 W15       30.02F
MORRISTOWN*    CLEAR     84  66  54 VRB3      30.00F
SEVIERVILLE*   CLEAR     90  63  40 SW9       29.98F HX  90
KNOXVILLE      TSTM      72  64  78 SW18      30.03R
OAK RIDGE      LGT RAIN  74  67  78 VRB3      30.05S
CROSSVILLE     MOSUNNY   77  65  66 N13       30.09F
NASHVILLE      LGT RAIN  67  63  87 NW9       30.09F
$$

...KEY TO REMARKS...
VSB - VISIBILITY IN MILES
WCI - WIND CHILL INDEX
HX  - HEAT INDEX

$$




USA.gov is the U.S. government's official web portal to all federal, state and local government web resources and services.